This is the latest recevied weather packets stored in our database for station/object AC1IX. If no packets are shown the sender has not sent any weather packets the latest 10 day(s).
| Time | Temp. | Humidity | Pressure | Rain* | Wind** | Luminosity | Snow |
|---|---|---|---|---|---|---|---|
| 1777505629 | 15.56° C | 61% | 1009.9 hPa | 0 mm | - | 2 W/m² | - |
| 1777505326 | 15.56° C | 59% | 1009.8 hPa | 0 mm | - | 4 W/m² | - |
| 1777505023 | 15.56° C | 59% | 1009.8 hPa | 0 mm | - | 8 W/m² | - |
| 1777504720 | 16.11° C | 57% | 1009.9 hPa | 0 mm | - | 13 W/m² | - |
| 1777504418 | 16.11° C | 57% | 1009.9 hPa | 0 mm | - | 19 W/m² | - |
| 1777504118 | 16.11° C | 58% | 1009.8 hPa | 0 mm | - | 22 W/m² | - |
| 1777503814 | 16.11° C | 59% | 1009.9 hPa | 0 mm | - | 26 W/m² | - |
| 1777503511 | 16.11° C | 58% | 1010 hPa | 0 mm | - | 26 W/m² | - |
| 1777503207 | 16.67° C | 59% | 1010.1 hPa | 0 mm | - | 24 W/m² | - |
| 1777502904 | 16.67° C | 58% | 1010 hPa | 0 mm | - | 29 W/m² | - |
| 1777502602 | 16.67° C | 58% | 1010.1 hPa | 0 mm | - | 34 W/m² | - |
| 1777502298 | 16.67° C | 57% | 1010.1 hPa | 0 mm | - | 39 W/m² | - |
| 1777501995 | 16.67° C | 57% | 1010.2 hPa | 0 mm | - | 59 W/m² | - |
| 1777501692 | 16.67° C | 57% | 1010 hPa | 0 mm | - | 74 W/m² | - |
| 1777501389 | 16.67° C | 57% | 1010 hPa | 0 mm | - | 65 W/m² | - |
| 1777501087 | 16.67° C | 57% | 1009.8 hPa | 0 mm | - | 62 W/m² | - |
| 1777500784 | 17.22° C | 56% | 1009.9 hPa | 0 mm | - | 74 W/m² | - |
| 1777500482 | 17.22° C | 56% | 1010.2 hPa | 0 mm | - | 97 W/m² | - |
| 1777500177 | 17.22° C | 57% | 1010.2 hPa | 0 mm | - | 100 W/m² | - |
| 1777499875 | 17.22° C | 56% | 1010.4 hPa | 0 mm | - | 89 W/m² | - |
| 1777499570 | 17.22° C | 57% | 1010.3 hPa | 0 mm | - | 86 W/m² | - |
| 1777499269 | 17.22° C | 56% | 1010.2 hPa | 0 mm | - | 91 W/m² | - |
| 1777498966 | 17.78° C | 56% | 1010.2 hPa | 0 mm | - | 100 W/m² | - |
| 1777498662 | 17.78° C | 58% | 1010.5 hPa | 0 mm | - | 103 W/m² | - |
| 1777498358 | 17.78° C | 56% | 1010.7 hPa | 0 mm | - | 101 W/m² | - |
* Rain latest hour (hover to see other rain measurements)
** Current wind speed in m/s (hover to see current wind gust speed)